This demonstration page uses our WeatherBlox Daily Observations layout. Learn more.

Left ArrowRight Arrow

Hourly Observations for September 14, 2020

Temp ( °F °C ) Dew Point ( °F °C ) Humidity (%) Winds ( mph kmh ) Pressure ( in mb ) Visibility ( mi km ) Precip ( " mm )
12:59 am 00:59 Clear 71 21.7 69 20.6 94 94 Calm 30.06 1018 8 13 0.00 0.00
1:59 am 01:59 Mostly Clear 71 21.7 69 20.6 94 94 Calm 30.06 1018 8 13 0.00 0.00
2:59 am 02:59 Partly Cloudy 71 21.7 68 20 90 90 Calm 30.05 1018 9 14 0.00 0.00
3:59 am 03:59 Partly Cloudy 72 22.2 69 20.6 91 91 Calm 30.05 1018 9 14 0.00 0.00
4:59 am 04:59 Partly Cloudy 74 23.3 71 21.7 91 91 NW 6 9 30.05 1018 9 14 0.00 0.00
5:59 am 05:59 Mostly Cloudy 75 23.9 72 22.2 90 90 NW 6 9 30.05 1018 9 14 0.00 0.00
6:59 am 06:59 Mostly Cloudy 75 23.9 72 22.2 90 90 NNW 7 11 30.06 1018 9 14 0.00 0.00
7:59 am 07:59 Partly Cloudy 76 24.4 72 22.2 88 88 NW 7 11 30.09 1019 9 14 0.00 0.00
8:59 am 08:59 Mostly Cloudy 79 26.1 70 21.1 74 74 N 8 13 30.09 1019 10 16 0.00 0.00
9:59 am 09:59 Mostly Cloudy 81 27.2 70 21.1 69 69 N 13 20 30.10 1019 10 16 0.00 0.00
10:46 am 10:46 Cloudy 80 26.7 71 21.7 74 74 N 12 19 30.11 1020 10 16 0.00 0.00
10:59 am 10:59 Cloudy 80 26.7 71 21.7 74 74 N 17 28 30.11 1020 10 16 0.00 0.00
11:59 am 11:59 Mostly Cloudy 79 26.1 69 20.6 72 72 N 21 33 30.12 1020 10 16 0.00 0.00
12:48 pm 12:48 Cloudy 77 25 67 19.4 71 71 N 18 30 30.13 1020 10 16 0.00 0.00
12:59 pm 12:59 Cloudy 77 25 67 19.4 71 71 N 17 28 30.13 1020 10 16 0.00 0.00
1:59 pm 13:59 Cloudy 78 25.6 66 18.9 67 67 N 16 26 30.13 1020 10 16 0.00 0.00
2:59 pm 14:59 Mostly Cloudy 79 26.1 65 18.3 62 62 N 15 24 30.12 1020 10 16 0.00 0.00
3:59 pm 15:59 Mostly Cloudy 78 25.6 62 16.7 58 58 N 15 24 30.11 1020 10 16 0.00 0.00
4:59 pm 16:59 Cloudy 76 24.4 62 16.7 62 62 N 13 20 30.12 1020 10 16 0.00 0.00
5:59 pm 17:59 Cloudy 76 24.4 60 15.6 58 58 N 15 24 30.13 1020 10 16 0.00 0.00
6:59 pm 18:59 Cloudy 75 23.9 57 13.9 54 54 N 10 17 30.14 1021 10 16 0.00 0.00
7:59 pm 19:59 Cloudy 75 23.9 60 15.6 60 60 N 14 22 30.15 1021 10 16 0.00 0.00
8:59 pm 20:59 Cloudy 74 23.3 61 16.1 64 64 N 13 20 30.16 1021 10 16 0.00 0.00
9:59 pm 21:59 Cloudy 75 23.9 57 13.9 54 54 NNE 16 26 30.18 1022 10 16 0.00 0.00
10:59 pm 22:59 Cloudy 73 22.8 57 13.9 57 57 NE 15 24 30.18 1022 10 16 0.00 0.00
11:59 pm 23:59 Mostly Cloudy 72 22.2 55 12.8 55 55 NE 18 30 30.20 1023 10 16 0.00 0.00

Powered by AerisWeather